Terug naar catalogus

STARLINK-36534

ActiefCommunicatieVLEO
NORAD 67496·PAYLOAD·🇺🇸 United States

Gelanceerd Jan 18, 2026 vanaf Cape Canaveral Space Force Station

Loading…

Volgende Passages (komende 24 uur)

TLE

VersSource: CelesTrak SupGP

Epoch: Sep 15, 2026, 02:53 UTC

1 67496C 26012D   26258.12062500  .00041248  00000+0  14946-2 0  2584
2 67496  43.0004 324.7908 0001466 255.3397 358.9696 15.27544447    19

Volg STARLINK-36534 in realtime met AllMySat

Download on the App Store